sat.trackr.live / text

‹ back to catalog

STARLINK-30353

NORAD 58113 · 2023-161S

PAYLOAD ACTIVE UNKNOWN

§ Identity

Operator
Country
US
Launch date
2023-10-21
Launch site
AFWTR
Launch vehicle
Mass (kg)
RCS (m²)

Purposes: comms

External: N2YO · Heavens-Above · Gunter

§ Orbital elements

Epoch: 2026-05-24T11:41:35.100384Z

Period
94.11 min
Inclination
53.1593°
Eccentricity
0.0001087
Mean motion
15.30196571 rev/d
Perigee alt
474.5 km
Apogee alt
476.0 km
Semi-major
6,853.4 km
B*
2.4759e-5
RAAN
173.6676°
Arg perigee
77.2204°
Mean anomaly
282.8919°
Rev number
14,602

§ Raw data

STARLINK-303531 58113U 23161S   26144.48721181  .00000374  00000+0  24759-4 0  99942 58113  53.1593 173.6676 0001087  77.2204 282.8919 15.30196571146020

JSON: /api/v1/satellites/58113 · /tle

For live sub-satellite position, see the globe view (requires WebGL).

§ Visibility from observer

Set your observer location to see the next 7 days of passes ≥ 10°. The values pass through the URL so the page stays shareable.

No JS? Fill the form by hand. The geolocation button needs JavaScript.